Weather History for Nashville, TN

Change the Weather History Date:

Tuesday, October 15, 2013

  Actual Average Record
Temperature  
Mean Temperature 68 °F 60 °F  
Max Temperature 75 °F 72 °F 89 °F (1947)
Min Temperature 61 °F 49 °F 32 °F (1978)
Degree Days  
Heating Degree Days 0 6  
Month to date heating degree days 12 64  
Since 1 July heating degree days 14 88  
Cooling Degree Days 3 1  
Month to date cooling degree days 79 33  
Year to date cooling degree days 1723 1627  
Growing Degree Days 18 (Base 50)    
Moisture  
Dew Point 58 °F    
Average Humidity 74    
Maximum Humidity 93    
Minimum Humidity 54    
Precipitation  
Precipitation T in 0.09 in 1.27 in (1925)
Month to date precipitation 1.08 1.45  
Year to date precipitation 43.11 37.11  
Snow  
Snow 0.00 in 0.00 in 0.00 in (2002)
Month to date snowfall 0.0 0.0  
Since 1 July snowfall 0.0 0.0  
Since 1 September snowfall 0.0 0.0  
Snow Depth 0.00 in    
Sea Level Pressure  
Sea Level Pressure 30.06 in    
Wind  
Wind Speed 8 mph (South)    
Max Wind Speed 18 mph    
Max Gust Speed 22 mph    
Visibility 10 miles    
Events      
T = Trace of Precipitation, MM = Missing Value Source: NWS Daily Summary

Daily Weather History Graph

Daily Weather History Graph

Search for Another Location

Airport:

Trip Planner

Search our weather history database for the weather conditions in past years. The results will help you decide how hot, cold, wet, or windy it might be!

Date:

Astronomy

Oct. 15, 2013 Rise Set
Actual Time 6:53 AM CDT 6:10 PM CDT
Civil Twilight 6:27 AM CDT 6:36 PM CDT
Nautical Twilight 5:58 AM CDT 7:06 PM CDT
Astronomical Twilight 5:28 AM CDT 7:35 PM CDT
Moon 4:10 PM CDT (10/15) 3:21 AM CDT (10/15)
Length of Visible Light 12h 08m
Length of Day
11h 16m
Waxing Gibbous, 88% of the Moon is Illuminated
Oct 15
Waxing Gibbous
Oct 18
Full
Oct 26
Last Quarter
Nov 3
New
Nov 9
First Quarter

Hourly Weather History & Observations

Time (CDT) Temp. Dew Point Humidity Pressure Visibility Wind Dir Wind Speed Gust Speed Precip Events Conditions
12:53 AM 64.0 °F 60.1 °F 87% 30.11 in 9.0 mi East 3.5 mph - N/A   Overcast
1:53 AM 63.0 °F 60.1 °F 90% 30.10 in 7.0 mi Calm Calm - N/A   Overcast
2:53 AM 62.1 °F 60.1 °F 93% 30.09 in 7.0 mi SSE 3.5 mph - N/A   Mostly Cloudy
3:53 AM 62.1 °F 59.0 °F 90% 30.08 in 7.0 mi SSE 3.5 mph - N/A   Overcast
4:53 AM 62.1 °F 60.1 °F 93% 30.09 in 9.0 mi South 3.5 mph - N/A   Overcast
5:53 AM 64.9 °F 60.1 °F 84% 30.09 in 10.0 mi South 8.1 mph - N/A   Overcast
6:53 AM 64.9 °F 59.0 °F 81% 30.09 in 10.0 mi South 9.2 mph - N/A   Overcast
7:53 AM 66.9 °F 59.0 °F 76% 30.09 in 10.0 mi South 10.4 mph - N/A   Overcast
8:53 AM 69.1 °F 57.9 °F 68% 30.11 in 10.0 mi South 10.4 mph - N/A   Overcast
9:53 AM 70.0 °F 57.9 °F 65% 30.10 in 10.0 mi South 9.2 mph - N/A   Overcast
10:53 AM 72.0 °F 57.0 °F 59% 30.08 in 10.0 mi South 17.3 mph 21.9 mph N/A   Overcast
11:53 AM 73.9 °F 57.9 °F 57% 30.08 in 10.0 mi South 13.8 mph - N/A   Overcast
12:53 PM 73.0 °F 57.0 °F 57% 30.06 in 10.0 mi SSW 10.4 mph - N/A   Overcast
1:53 PM 75.0 °F 57.9 °F 55% 30.04 in 10.0 mi South 11.5 mph - N/A   Overcast
2:53 PM 73.9 °F 57.9 °F 57% 30.02 in 10.0 mi South 8.1 mph - N/A   Mostly Cloudy
3:53 PM 73.9 °F 57.9 °F 57% 30.02 in 10.0 mi SSW 10.4 mph - N/A   Mostly Cloudy
4:53 PM 73.9 °F 57.9 °F 57% 30.01 in 10.0 mi SSW 6.9 mph - N/A   Mostly Cloudy
5:53 PM 72.0 °F 57.9 °F 61% 30.01 in 10.0 mi South 5.8 mph - N/A   Mostly Cloudy
6:53 PM 70.0 °F 59.0 °F 68% 30.00 in 10.0 mi SSE 6.9 mph - N/A   Mostly Cloudy
7:53 PM 70.0 °F 57.9 °F 65% 30.00 in 10.0 mi South 9.2 mph - N/A   Overcast
8:53 PM 69.1 °F 57.9 °F 68% 30.01 in 10.0 mi South 9.2 mph - N/A   Overcast
9:53 PM 68.0 °F 57.9 °F 70% 30.01 in 10.0 mi South 9.2 mph - N/A   Overcast
10:53 PM 66.9 °F 57.0 °F 70% 30.01 in 10.0 mi South 8.1 mph - N/A   Overcast
11:53 PM 66.9 °F 57.0 °F 70% 30.01 in 10.0 mi South 4.6 mph - N/A   Overcast